RH
62 75 87 77 74 54 62 69 76 68 55 53 59 55 47 43 42 45 45 42 46 65 60 61 67 77 84 99 94 80 80 80 74 64 62 59 54 53 48 44 44 48 48 46
77 92 68 64 66 71 73 80 82 63 53 52 60 58 44 41 42 42 40 44 40 50 58 61 66 69 75 84 100 81 77 77 73 65 61 60 56 52 47 44 45 47 48 47
87 70 61 69 73 77 79 83 75 68 60 57 65 62 51 44 41 41 42 41 39 37 40 48 66 72 68 87 90 99 77 74 73 67 63 58 56 55 51 47 46 50 49 49
85 65 68 76 79 74 89 68 66 66 68 82 58 85 63 51 51 44 44 46 42 38 33 34 54 81 82 74 65 73 92 76 70 67 65 58 57 58 56 50 48 50 52 50
76 69 83 82 68 70 76 55 65 59 68 74 72 88 62 51 42 34 35 36 46 45 39 34 34 84 86 86 91 98 97 84 78 69 68 63 64 57 52 50 49 48 52 53
70 53 58 69 61 60 54 62 68 78 79 95 78 78 59 42 37 31 35 42 43 41 40 36 30 57 96 97 99 100 100 91 83 82 76 71 70 64 58 57 55 52 53 53
73 72 66 53 62 59 65 77 93 97 98 92 72 84 64 44 38 30 32 42 49 54 58 49 35 38 83 98 99 99 100 100 86 80 78 75 71 70 63 58 56 58 58 57
96 78 69 64 63 74 80 74 91 98 98 89 76 90 66 42 40 36 41 44 49 52 55 58 66 68 63 96 92 94 97 98 97 86 82 80 77 75 71 68 61 56 54 55
97 92 62 63 58 58 80 84 63 86 93 99 90 70 50 46 42 46 47 49 53 53 55 59 63 62 90 90 88 87 92 96 100 97 93 89 84 81 76 73 69 63 59 56
68 87 66 64 60 62 72 67 86 92 97 99 86 74 74 44 47 50 52 54 52 51 54 58 63 61 56 61 73 78 81 88 100 98 93 90 88 87 85 80 75 71 66 63
72 78 73 76 82 88 78 79 77 74 86 88 90 81 64 64 54 53 54 55 53 52 56 62 66 62 59 55 52 54 66 93 95 100 98 96 94 93 92 89 86 80 73 68
98 100 96 80 69 68 60 65 75 94 93 90 87 81 50 60 58 56 53 51 60 64 64 60 61 63 67 66 62 58 54 61 81 100 99 98 98 98 97 95 92 88 81 76
94 98 97 93 72 70 82 76 64 76 81 92 86 81 62 66 68 65 71 71 68 67 67 67 65 66 66 72 71 72 68 58 57 75 98 97 99 99 97 95 92 93 88 86
88 93 91 90 91 96 98 95 82 73 87 78 83 66 91 78 86 73 70 66 66 66 67 69 71 69 71 72 70 66 61 70 68 72 93 100 100 99 100 100 100 97 95 92
85 95 93 78 81 82 95 98 97 94 81 89 76 71 87 81 80 75 68 63 64 65 65 66 73 72 73 75 77 76 68 63 74 82 94 86 97 100 100 100 100 100 100 98
77 95 79 75 62 78 88 84 92 99 97 88 90 94 87 83 70 79 77 70 68 68 68 66 67 71 73 76 78 80 81 76 79 84 99 96 100 100 100 100 100 100 100 100
71 91 89 84 66 56 80 93 87 93 94 95 95 94 92 92 83 88 92 78 70 70 70 71 68 70 71 75 79 87 90 86 87 88 96 98 100 100 94 96 100 100 100 100
89 84 84 93 82 94 94 89 78 88 91 89 87 89 91 87 89 94 93 93 84 72 73 71 72 72 75 80 85 100 91 95 94 96 99 99 98 99 100 100 100 100 100 99
70 82 94 100 86 92 93 91 89 89 92 90 89 83 75 71 68 95 91 80 70 75 68 72 75 77 74 76 89 100 98 92 85 85 94 100 100 100 100 100 100 100 100 100
64 74 82 92 95 80 88 87 90 94 94 93 84 82 90 72 81 82 79 73 67 67 74 74 80 76 67 68 87 100 97 93 91 89 91 99 100 100 100 100 100 100 100 100
74 92 95 87 95 91 88 79 84 96 94 86 90 90 90 92 92 84 67 67 69 72 70 76 85 80 66 66 78 98 99 97 94 91 92 97 100 100 100 100 100 100 100 100
95 98 92 87 96 97 89 59 83 94 89 89 89 87 88 87 81 74 66 68 72 77 81 83 90 89 73 60 68 83 91 94 94 93 95 97 100 100 100 100 100 100 100 100
95 97 100 100 98 95 94 95 94 94 92 86 87 84 82 78 74 70 72 72 76 79 81 87 91 96 82 79 84 79 79 91 97 99 100 100 100 100 100 100 100 100 100 100
89 94 99 94 91 93 91 81 84 88 93 88 84 89 83 86 78 78 78 78 81 84 86 92 92 93 98 95 100 91 84 87 95 99 100 100 100 100 100 100 100 100 100 100
96 92 100 97 90 92 88 91 95 88 77 80 78 80 83 85 81 84 84 85 89 88 90 96 97 97 98 99 100 100 100 95 95 99 100 100 100 100 100 100 99 100 100 100
99 99 100 98 96 97 92 92 94 94 93 91 92 86 86 89 90 91 89 90 94 94 97 97 96 100 100 98 100 100 99 100 99 98 99 100 100 100 99 98 99 99 98 99
Wind_Speed
3 3 9 10 8 1 2 3 5 4 8 5 9 19 12 8 7 10 10 9 8 8 11 20 25 24 20 19 30 34 32 35 38 38 35 33 35 33 32 32 30 29 28 28
1 9 9 6 5 6 5 6 7 6 4 3 8 21 20 14 10 11 14 9 9 5 6 7 18 23 27 28 25 29 32 35 37 35 35 27 32 33 33 31 31 29 30 29
8 5 1 9 6 6 6 6 4 6 5 4 7 9 8 4 2 4 6 8 9 10 9 8 7 19 27 26 29 27 33 36 33 30 32 22 27 23 30 32 31 32 31 30
8 11 8 4 5 11 8 7 11 7 2 3 3 6 6 8 9 4 7 8 9 10 6 7 6 13 22 28 29 26 32 35 38 37 33 32 29 21 27 31 33 33 31 30
8 5 7 11 13 7 7 4 6 4 2 3 2 1 7 6 8 7 7 4 8 9 9 10 9 16 27 27 29 30 33 33 36 42 41 36 26 31 32 33 32 32 32 32
6 2 4 7 5 13 3 4 5 4 3 4 9 7 5 4 3 5 4 7 5 7 8 6 11 12 13 18 23 26 30 33 37 39 40 38 34 30 30 32 33 35 34 33
4 15 4 4 3 0 5 8 2 3 2 6 2 3 7 6 5 1 3 6 7 7 7 4 5 6 13 15 16 20 26 29 37 39 39 41 41 39 35 35 36 34 35 36
6 5 13 11 17 7 8 9 5 7 5 4 2 6 6 4 5 1 5 3 6 8 7 7 7 3 8 16 22 22 24 26 32 38 40 41 38 36 37 36 35 36 38 38
6 6 2 4 5 14 6 8 6 5 2 2 4 6 9 7 5 6 6 6 7 7 8 8 7 13 10 7 11 13 16 20 26 32 35 36 38 37 39 39 37 36 35 36
4 4 5 3 4 1 7 8 2 2 4 6 4 4 5 2 5 6 6 7 5 5 8 8 7 12 14 12 4 7 11 16 22 31 34 37 39 38 36 36 37 38 36 35
3 4 2 4 6 11 5 6 3 4 5 5 2 5 4 5 7 9 6 7 7 7 7 7 7 13 13 13 13 8 5 7 13 21 26 27 31 33 32 33 32 35 38 38
5 3 7 11 4 7 15 18 12 5 5 3 3 5 4 5 8 7 6 6 9 10 10 10 10 14 16 14 14 14 12 7 2 6 19 21 22 25 27 31 34 34 37 38
9 4 2 3 1 1 8 5 12 4 2 7 6 5 7 13 14 11 11 11 11 12 13 11 12 13 18 19 20 15 13 13 10 7 11 17 23 26 29 32 33 34 34 34
12 4 6 5 2 3 5 9 10 14 9 7 6 3 7 13 12 13 13 11 12 13 14 13 12 11 18 20 21 24 20 15 13 10 10 15 21 26 28 30 29 32 33 32
4 4 6 12 9 6 7 5 10 18 17 10 7 10 4 9 10 11 12 13 14 15 16 16 15 14 20 21 23 26 28 24 15 10 10 14 17 19 23 24 27 28 29 30
1 4 8 11 5 6 5 6 13 8 5 12 6 5 10 8 10 12 13 14 15 17 17 15 16 18 22 25 26 25 26 27 18 14 10 12 15 16 18 21 23 24 26 29
3 3 1 6 9 10 5 7 3 5 12 7 2 6 10 8 11 10 11 14 13 14 15 15 15 16 20 22 24 27 27 22 15 14 11 10 12 14 16 20 23 24 28 31
4 3 6 3 2 4 5 10 17 18 13 14 12 13 11 10 10 5 10 11 14 14 13 13 18 23 26 26 25 24 15 11 11 12 11 10 12 15 18 21 24 26 30 33
11 6 2 3 5 6 2 6 5 5 7 13 13 14 13 18 8 9 15 15 13 12 15 16 21 23 26 27 28 18 9 7 9 11 13 14 13 16 18 21 24 26 27 26
11 16 7 3 3 6 5 12 8 5 2 11 13 14 16 16 6 4 18 17 18 22 21 23 26 23 23 28 24 17 13 12 14 14 13 12 13 16 18 20 23 24 24 25
5 4 2 6 2 4 11 16 6 5 2 11 9 10 10 8 7 14 15 16 21 23 22 23 24 21 21 26 21 14 15 13 13 13 12 9 9 12 16 19 21 24 25 25
2 3 3 3 3 2 16 4 5 4 5 8 8 10 11 11 14 14 15 15 19 21 23 21 20 22 24 22 19 12 10 12 11 10 7 6 8 11 15 20 22 25 28 29
2 1 1 3 3 4 5 7 6 7 6 7 8 9 11 12 14 16 15 15 17 21 23 24 20 20 20 21 18 13 10 8 7 6 5 6 8 10 14 20 24 25 25 26
6 3 2 1 3 3 7 6 8 7 7 9 9 8 10 11 11 13 13 14 17 20 21 22 19 18 19 23 18 11 10 7 5 4 5 7 10 11 14 17 20 22 22 22
1 4 3 2 4 4 4 8 9 10 10 11 10 9 9 10 12 11 11 13 18 20 21 22 19 17 19 22 16 14 11 9 4 3 5 8 11 14 16 16 16 18 19 25
2 1 2 2 3 3 6 5 7 8 10 11 10 12 15 13 11 16 13 18 18 19 22 21 21 20 20 19 15 15 13 7 6 5 7 10 13 16 18 18 17 14 18 18
Wind_Direction
187 160 218 203 208 180 142 246 259 261 270 295 267 285 281 254 216 256 249 250 247 232 223 219 193 190 192 208 178 184 186 189 183 184 187 192 198 203 203 202 201 201 199 195
142 234 237 207 216 237 260 274 280 287 270 214 288 291 293 264 242 221 233 229 238 236 248 214 203 178 192 199 188 181 186 193 191 188 189 190 198 203 207 205 205 206 203 198
192 217 191 190 200 217 229 220 247 254 322 286 322 285 315 302 284 212 232 226 208 212 220 239 204 191 191 191 192 189 189 195 193 191 190 187 196 204 207 208 205 207 206 204
233 236 246 174 218 202 245 213 230 253 329 253 37 294 300 304 312 265 264 205 220 202 208 223 206 194 188 205 217 209 205 198 195 196 194 194 189 193 207 210 209 208 210 211
223 198 198 228 229 159 225 186 188 201 199 352 242 226 275 335 332 343 337 296 218 217 207 212 216 195 198 199 199 197 196 198 193 199 202 201 199 203 209 211 214 212 213 214
226 199 174 204 217 197 132 83 40 49 86 278 212 183 276 239 224 317 359 27 46 195 215 221 219 212 212 207 193 192 187 194 198 200 199 204 202 205 204 208 211 213 214 215
297 249 223 179 249 118 150 132 250 232 197 234 276 160 262 282 267 277 30 39 42 58 87 105 217 218 199 193 204 203 197 191 195 202 202 209 211 211 212 210 212 214 215 215
187 302 185 189 205 185 180 186 165 203 203 250 17 231 245 235 276 190 64 60 64 67 67 64 49 19 204 197 190 200 203 200 198 202 207 213 212 212 215 215 215 220 220 220
183 261 217 184 165 159 183 202 166 99 36 39 222 278 290 248 85 106 112 77 58 55 61 67 44 48 61 167 190 210 208 208 202 202 205 208 214 215 217 223 224 225 225 224
232 269 202 196 122 67 158 155 129 125 205 233 274 280 243 98 127 115 124 111 85 58 50 49 52 47 53 69 98 218 226 224 221 214 213 214 219 220 220 221 222 226 228 227
170 178 260 105 204 166 156 195 172 154 162 179 172 257 230 241 178 152 146 129 115 67 45 39 29 33 46 50 46 42 30 244 241 226 221 216 221 224 222 224 224 227 230 227
344 261 217 210 231 205 201 199 179 164 182 212 146 274 350 354 114 99 98 71 42 40 34 29 31 31 33 33 31 26 21 8 286 248 237 233 230 228 227 228 232 231 230 230
348 268 195 185 149 330 218 210 202 128 101 189 149 248 359 51 55 37 55 45 32 27 26 20 19 12 5 13 20 16 11 2 333 290 242 234 225 229 232 235 235 231 226 224
351 276 290 273 291 346 233 210 216 205 222 186 202 163 28 34 29 24 27 37 37 26 15 9 12 8 357 357 359 359 357 347 340 309 261 244 233 228 225 229 225 226 221 211
26 290 359 313 292 278 269 297 236 215 222 202 197 179 76 33 34 20 20 21 29 18 9 1 356 353 350 352 349 345 343 344 334 317 270 255 251 239 232 231 229 226 215 209
150 264 344 312 321 247 236 15 347 277 311 231 171 102 1 14 17 22 16 20 19 10 357 350 345 348 347 342 336 331 329 333 330 322 304 269 249 242 230 230 230 220 205 193
293 299 12 275 335 320 236 19 9 119 33 337 260 40 4 357 2 9 15 8 8 357 351 344 329 334 332 329 323 318 318 325 322 319 315 282 252 233 239 236 224 205 194 190
203 226 261 259 355 272 60 28 72 86 39 23 21 0 359 338 318 282 34 5 356 341 338 333 332 330 326 325 328 335 343 340 333 325 308 279 257 241 226 216 208 200 195 190
218 217 282 239 186 117 46 39 351 355 65 13 5 351 352 343 313 154 11 352 338 333 324 327 318 322 324 329 338 339 359 8 345 331 311 285 253 233 219 209 201 198 188 180
348 205 188 225 213 218 19 332 318 313 92 2 1 357 349 350 16 352 340 337 333 328 333 329 332 326 331 331 341 335 337 337 339 334 314 291 260 231 211 202 192 186 182 174
352 352 229 286 33 84 343 322 295 213 6 344 351 358 342 341 326 316 327 329 328 323 329 330 328 326 324 327 337 338 336 338 332 330 319 295 257 223 204 189 185 179 169 159
49 341 23 344 34 99 350 1 56 336 337 349 346 348 341 334 329 330 329 329 326 328 329 333 330 324 326 334 335 335 334 329 327 319 304 277 237 215 195 186 172 167 158 146
34 162 48 42 91 75 8 62 0 344 344 352 344 347 345 341 337 332 329 326 329 329 329 331 330 325 333 344 349 336 336 339 328 303 263 230 223 209 195 183 166 154 152 147
357 351 75 28 351 1 48 32 14 355 348 338 347 345 343 340 336 333 331 328 329 325 329 331 332 334 336 349 349 355 339 340 325 278 239 209 201 190 182 175 165 159 158 154
273 356 345 314 335 22 360 7 349 345 350 349 349 350 349 342 342 337 329 328 322 330 337 334 335 339 338 343 340 337 335 324 305 251 222 191 174 170 167 166 169 167 168 165
355 230 82 251 249 211 267 298 331 335 339 336 344 343 346 351 340 339 330 330 333 341 339 339 337 341 344 342 333 335 331 310 263 188 179 174 167 159 150 137 116 151 153 151